Powrót do katalogu

SL-19 R/B

AktywnyPO
NORAD 36039·ROCKET BODY·🇷🇺 Russia

Wystrzelony Nov 2, 2009 z Plesetsk Cosmodrome

Loading…

Następne Przeloty (najbliższe 24 godziny)

TLE

ŚwieżeSource: Space-Track

Epoka: Sep 14, 2026, 04:42 UTC

1 36039U 09059D   26257.19600484  .00000893  00000-0  74834-4 0  9998
2 36039  98.3386 169.6260 0124259  72.3235 289.1506 14.95571101915926

Śledź SL-19 R/B w czasie rzeczywistym z AllMySat

Download on the App Store